This is the latest recevied weather packets stored in our database for station/object G4KVI. If no packets are shown the sender has not sent any weather packets the latest 10 day(s).
| Time | Temp. | Humidity | Pressure | Rain* | Wind** | Luminosity | Snow |
|---|---|---|---|---|---|---|---|
| 1778013903 | 11.67° C | 66% | 1015.5 hPa | 0 mm | - | 0 W/m² | - |
| 1778013666 | 11.67° C | 66% | 1015.6 hPa | 0 mm | - | 0 W/m² | - |
| 1778013366 | 11.67° C | 65% | 1015.5 hPa | 0 mm | - | 0 W/m² | - |
| 1778013066 | 11.67° C | 65% | 1015.5 hPa | 0 mm | - | 0 W/m² | - |
| 1778012766 | 11.67° C | 64% | 1015.8 hPa | 0 mm | - | 0 W/m² | - |
| 1778012466 | 11.67° C | 64% | 1015.5 hPa | 0 mm | - | 0 W/m² | - |
| 1778012166 | 11.67° C | 63% | 1015.4 hPa | 0 mm | - | 0 W/m² | - |
| 1778011866 | 11.67° C | 63% | 1015.5 hPa | 0 mm | - | 0 W/m² | - |
| 1778011566 | 11.67° C | 63% | 1015.4 hPa | 0 mm | - | 0 W/m² | - |
| 1778011266 | 11.67° C | 63% | 1015.4 hPa | 0 mm | - | 0 W/m² | - |
| 1778010966 | 11.67° C | 63% | 1015.5 hPa | 0 mm | - | 0 W/m² | - |
| 1778010666 | 11.67° C | 63% | 1015.2 hPa | 0 mm | - | 0 W/m² | - |
| 1778010366 | 11.67° C | 63% | 1015.2 hPa | 0 mm | - | 1 W/m² | - |
| 1778010066 | 11.67° C | 63% | 1014.9 hPa | 0 mm | - | 2 W/m² | - |
| 1778009766 | 11.67° C | 63% | 1015.2 hPa | 0 mm | - | 3 W/m² | - |
| 1778009466 | 11.67° C | 62% | 1015.2 hPa | 0 mm | - | 5 W/m² | - |
| 1778009166 | 11.67° C | 62% | 1015 hPa | 0 mm | - | 7 W/m² | - |
| 1778008866 | 12.22° C | 62% | 1015.1 hPa | 0 mm | - | 9 W/m² | - |
| 1778008566 | 12.22° C | 62% | 1014.9 hPa | 0 mm | - | 12 W/m² | - |
| 1778008268 | 12.22° C | 61% | 1015.1 hPa | 0 mm | - | 15 W/m² | - |
| 1778007969 | 12.22° C | 61% | 1015 hPa | 0 mm | - | 18 W/m² | - |
| 1778007668 | 12.78° C | 60% | 1014.9 hPa | 0 mm | - | 23 W/m² | - |
| 1778007368 | 12.78° C | 59% | 1014.7 hPa | 0 mm | - | 27 W/m² | - |
| 1778007068 | 12.78° C | 59% | 1014.9 hPa | 0 mm | - | 31 W/m² | - |
| 1778006768 | 12.78° C | 59% | 1014.8 hPa | 0 mm | - | 36 W/m² | - |
* Rain latest hour (hover to see other rain measurements)
** Current wind speed in m/s (hover to see current wind gust speed)